Location: Prague
(50.0830°N, 14.4670°E)
Time: 03:43:01
(UTC+02:00)

FO-29 - Pass Details

Date: 02 April 2023
Orbit: 799 x 1322 km, 98.5° (Epoch: 29 May)

Event Time Altitude Azimuth Distance (km) Brightness Sun altitude
Rises 05:00:05 0° 18° (NNE) 4,292 13.6 -15.6°
Reaches altitude 10° 05:03:16 10° 28° (NNE) 3,275 13.1 -15.2°
Maximum altitude 05:09:56 33° 90° (E) 1,910 11.7 -14.2°
Drops below altitude 10° 05:16:00 10° 152° (SSE) 2,973 12.1 -13.3°
Sets 05:18:44 0° 162° (SSE) 3,848 12.6 -12.9°
